Content
SEND FEEDBACK

Daily
Averages
Monthly
Summary
France

CANNES, FRANCE


Home > Europe > France
Elevation: 30 feet     Latitude: 43 33N     Longitude: 006 57E

WEATHER
 
SELECT A DAY
Number of Records: 110,900;   Date Range: 7/1/96 - 9/30/14
 
SHARE

PRINT THIS DATA

[ ← Previous Day ]
WEATHER ALMANAC - APRIL 23, 2013
[ Next Day → ]
[ °C ]   °F
Weather ElementAverageHighLow
Temperature55.6 °F64.4 °F (1:00 pm)46.4 °F (2:00 am)
Dewpoint47.9 °F53.6 °F (12:00 pm)42.8 °F (5:00 am)
Humidity76.4 %93 % (12:30 am)59 % (3:00 pm)
Barometer30.15 in30.27 in (10:30 pm)30.04 in (12:30 am)
Wind Speed4.1 mph9.2 mph (11:00 am)
Weather ElementAverage
Visibility6.2 mi
Wind DirectionENE (71.5 °)

Weather ElementTotal
Precipitation---
Heating Degree Days9.6 (Base 65)
Growing Degree Days5.4 (Base 50)
Averaged from 47 records on April 23, 2013
WEATHER CONDITIONS BREAKOUT
WIND DIRECTION BREAKOUT
WEATHER BY HOUR - APRIL 23, 2013
[ °C ]   °F
Local TimeTemperatureDewpointHumidityBarometerVisibilityWind DirectionWind SpeedGust SpeedPrecipitationEventsConditions
12:30 AM48.2 °F46.4 °F93 %30.04 in6.2 miVariable2.3 mph
1:00 AM48.2 °F46.4 °F93 %30.04 in6.2 miVariable2.3 mph
1:30 AM48.2 °F44.6 °F87 %30.04 in6.2 miVariable3.5 mph
2:00 AM46.4 °F44.6 °F93 %30.04 in6.2 miNorth (10°)3.5 mph
2:30 AM46.4 °F44.6 °F93 %30.04 in6.2 miNorth (360°)3.5 mph
3:00 AM46.4 °F44.6 °F93 %30.04 in6.2 miVariable2.3 mph
3:30 AM46.4 °F44.6 °F93 %30.04 in6.2 miNorth (350°)3.5 mphPartly Cloudy
4:00 AM46.4 °F44.6 °F93 %30.04 in6.2 miVariable2.3 mph
4:30 AM46.4 °F44.6 °F93 %30.04 in6.2 miVariable2.3 mph
5:00 AM46.4 °F42.8 °F87 %30.06 in6.2 miVariable3.5 mph
5:30 AM46.4 °F44.6 °F93 %30.06 in6.2 miNorth (10°)4.6 mph
6:00 AM46.4 °F44.6 °F93 %30.06 in6.2 miVariable3.5 mph
6:30 AM46.4 °F44.6 °F93 %30.06 in6.2 miVariable2.3 mph
7:00 AM46.4 °F44.6 °F93 %30.09 in6.2 miVariable3.5 mphMostly Cloudy
7:30 AM48.2 °F44.6 °F87 %30.09 in6.2 miVariable2.3 mphMostly Cloudy
8:00 AM51.8 °F46.4 °F82 %30.12 in6.2 miNorth (10°)3.5 mph
8:30 AM55.4 °F48.2 °F77 %30.12 in6.2 miNorth (10°)3.5 mphScattered Clouds
9:00 AM59.0 °F50.0 °F72 %30.12 in6.2 miVariable2.3 mph
9:30 AM62.6 °F50.0 °F63 %30.12 in6.2 miVariable2.3 mphPartly Cloudy
10:00 AM62.6 °F51.8 °F68 %30.15 in6.2 miVariable3.5 mphMostly Cloudy
10:30 AM62.6 °F50.0 °F63 %30.15 in6.2 miSE (130°)5.8 mphOvercast
11:00 AM62.6 °F50.0 °F63 %30.18 in6.2 miSSE (150°)9.2 mphOvercast
11:30 AM62.6 °F51.8 °F68 %30.18 in6.2 miSE (140°)8.1 mphOvercast
12:00 PM62.6 °F53.6 °F72 %30.18 in6.2 miSE (140°)6.9 mphMostly Cloudy
12:30 PM62.6 °F51.8 °F68 %30.18 in6.2 miSSE (150°)8.1 mphOvercast
1:00 PM64.4 °F53.6 °F68 %30.18 in6.2 miSSE (150°)9.2 mphOvercast
1:30 PM60.8 °F50.0 °F68 %30.18 in6.2 miSSE (150°)8.1 mphOvercast
2:00 PM60.8 °F50.0 °F68 %30.21 in6.2 miSSE (160°)6.9 mphOvercast
2:30 PM62.6 °F50.0 °F63 %30.21 in6.2 miSE (140°)6.9 mphOvercast
3:00 PM62.6 °F48.2 °F59 %30.21 in6.2 miSSE (150°)8.1 mphOvercast
3:30 PM62.6 °F50.0 °F63 %30.21 in6.2 miSSE (160°)6.9 mphOvercast
4:00 PM62.6 °F50.0 °F63 %30.21 in6.2 miSSE (160°)5.8 mphOvercast
4:30 PM62.6 °F50.0 °F63 %30.21 in6.2 miESE (120°)5.8 mphOvercast
5:00 PM62.6 °F50.0 °F63 %30.21 in6.2 miSouth (170°)6.9 mphOvercast
5:30 PM60.8 °F51.8 °F72 %30.21 in6.2 miSouth (180°)4.6 mphOvercast
6:00 PM62.6 °F50.0 °F63 %30.21 in6.2 miSouth (170°)3.5 mphOvercast
6:30 PM60.8 °F48.2 °F63 %30.21 in6.2 miVariable2.3 mphOvercast
7:00 PM62.6 °F50.0 °F63 %30.18 in6.2 miCalmMostly Cloudy
7:30 PM62.6 °F48.2 °F59 %30.18 in6.2 miSouth (180°)2.3 mphMostly Cloudy
8:00 PM59.0 °F46.4 °F63 %30.21 in6.2 miCalmMostly Cloudy
8:30 PM57.2 °F48.2 °F72 %30.21 in6.2 miVariable2.3 mphOvercast
9:00 PM55.4 °F48.2 °F77 %30.24 in6.2 miCalmPartly Cloudy
9:30 PM55.4 °F48.2 °F77 %30.24 in6.2 miVariable2.3 mphPartly Cloudy
10:00 PM53.6 °F46.4 °F77 %30.24 in6.2 miVariable3.5 mph
10:30 PM51.8 °F46.4 °F82 %30.27 in6.2 miVariable3.5 mph
11:00 PM50.0 °F46.4 °F87 %30.27 in6.2 miVariable2.3 mph
11:30 PM50.0 °F46.4 °F87 %30.27 in6.2 miNorth (10°)3.5 mphMostly Cloudy
Hourly data recorded from LFMD, located miles away from Cannes, France







STORIES FROM OUR PARTNERS